[[{"header":{"parameterUnit":"m.s-1","parameterCategory":1,"la1":30.2991,"la2":30.254,"lo1":-89.0895,"lo2":-89.0444,"dy":0.0017,"dx":0.0017,"nx":28,"ny":28,"refTime":"2024-12-23T09:00:00:Z","depth":0,"parameterNumber":2,"parameterNumberName":"U-component_of_WINDS"},"data":[0,0,0,0,0,0,0,0,0,0,0,0,0,0,0,0,0,0,0,0,0,0,0,0,0,0,0,0,0,0,0,0,0,0,0,0,0,0,0,0,0,0,0,0,0,0,0,0,0,0,0,0,0,0,0,0,0,0,-5.8375,-5.8375,0,-5.8433,-5.8434,-5.8434,-5.8295,-5.8291,-5.8287,-5.8282,-5.8342,-5.8347,-5.8353,0,0,0,0,0,0,0,0,0,0,0,0,0,-5.8142,-5.8147,-5.8375,-5.8375,-5.8376,-5.8433,-5.8434,-5.8435,-5.8296,-5.8291,-5.8285,-5.828,-5.834,-5.8347,-5.8354,0,0,0,0,0,0,0,0,0,0,0,0,0,-5.8226,-5.8149,-5.8375,-5.8314,-5.8309,-5.8433,-5.8434,-5.8435,-5.8297,-5.8291,-5.8284,-5.8278,-5.8338,-5.8346,-5.8355,-5.854,0,0,-5.8381,-5.8384,0,0,0,0,0,0,0,0,-5.8222,-5.8235,-5.8322,-5.8318,-5.8313,-5.835,-5.8373,-5.847,-5.8299,-5.8302,-5.8282,-5.8275,-5.835,-5.8357,-5.8383,-5.8543,-5.8545,-5.8381,-5.8387,-5.839,-5.8393,0,0,0,0,0,0,0,-5.8216,-5.8232,-5.8398,-5.8324,-5.8318,-5.8283,-5.8288,-5.8391,-5.8362,-5.8301,-5.8291,-5.83,-5.8346,-5.8375,-5.8383,-5.8546,-5.8381,-5.8389,-5.8394,-5.8397,-5.8859,-5.8866,0,0,0,0,0,0,-5.8218,-5.8228,-5.8396,-5.8399,-5.825,-5.8293,-5.8298,-5.8345,-5.8361,-5.8357,-5.8305,-5.8293,-5.8363,-5.8373,-5.8385,-5.86,-5.839,-5.8398,-5.8403,-5.8852,-5.8861,-5.8868,0,0,0,0,0,0,-5.8214,-5.8234,-5.8393,-5.8311,-5.8329,-5.8304,-5.8358,-5.835,-5.8378,-5.8364,-5.8358,-5.834,-5.8359,-5.8373,-5.8502,-5.8601,-5.8402,-5.841,-5.8844,-5.8855,-5.8864,-5.9036,0,0,0,0,0,0,-5.8208,-5.8234,-5.8304,-5.8314,-5.8334,-5.8511,-5.8364,-5.8356,-5.8393,-5.8377,-5.8395,-5.8391,-5.8354,-5.849,-5.851,-5.8609,-5.8417,-5.8834,-5.8848,-5.8861,-5.9021,-5.9051,-5.9076,0,0,0,0,0,-5.82,-5.835,-5.8308,-5.8329,-5.8421,-5.8517,-5.8528,-5.8482,-5.8402,-5.8472,-5.8463,-5.8391,-5.8587,-5.8504,-5.8526,-5.8629,-5.8828,-5.8844,-5.886,-5.9008,-5.9045,-5.9076,0,0,0,0,0,0,-5.8353,-5.835,-5.8304,-5.8462,-5.8491,-5.8493,-5.858,-5.8523,-5.8575,-5.8558,-5.8499,-5.8504,-5.8644,-5.865,-5.8557,-5.8808,-5.8694,-5.8715,-5.8799,-5.8834,-5.8861,-5.8855,-5.8424,0,0,0,0,0,-5.8405,-5.8483,-5.8477,-5.8617,-5.8633,-5.8605,-5.8645,-5.8607,-5.8634,-5.8646,-5.8646,-5.8675,-5.8743,-5.8789,-5.8851,-5.9022,-5.9022,-5.9103,-5.9131,-5.9154,-5.9172,-5.9261,-5.9296,-5.8921,-5.8921,-5.8921,0,0,-5.8513,-5.8522,-5.8575,-5.8648,-5.8665,-5.8747,-5.8616,-5.8708,-5.8767,-5.866,-5.8781,-5.8783,-5.8811,-5.8962,-5.9028,-5.897,-5.9276,-5.9174,-5.9193,-5.9198,-5.9281,-5.9317,-5.9348,-5.8932,-5.893,-5.8928,0,0,-5.8752,-5.8767,-5.8884,-5.8905,-5.8933,-5.8913,-5.8942,-5.8953,-5.895,-5.9071,-5.8992,-5.9062,-5.9181,-5.9203,-5.9231,-5.9479,-5.9414,-5.9501,-5.9644,-5.9732,-5.9761,-5.9787,-5.9874,-5.9906,-5.9519,-5.952,-5.952,0,-5.8883,-5.9002,-5.8952,-5.9049,-5.9083,-5.899,-5.9107,-5.913,-5.9178,-5.9203,-5.9138,-5.9284,-5.9297,-5.9451,-5.9511,-5.9537,-5.9567,-5.9497,-5.9761,-5.9787,-5.981,-5.9892,-5.9925,-5.953,-5.9529,-5.9528,-5.9527,0,-5.9161,-5.9245,-5.9337,-5.9384,-5.9429,-5.9536,-5.9502,-5.9553,-5.9512,-5.9499,-5.9623,-5.9635,-5.9697,-5.9731,-5.9693,-5.988,-5.9843,-5.9771,-5.9654,-5.9857,-5.9932,-5.9963,-5.9545,-5.9541,-5.9538,-5.9536,0,0,-5.9495,-5.9514,-5.9549,-5.9568,-5.9593,-5.9657,-5.9761,-5.9821,-5.9865,-5.9902,-5.9985,-6.0088,-6.0022,-6.0053,-6.0016,-6.0093,-6.0286,-6.0011,-6.0011,-6.006,-6.0491,-6.0543,-6.058,-6.0244,-6.025,-6.0255,-6.0488,0,-5.9729,-5.9905,-5.9863,-6.0037,-6.0114,-6.0027,-6.0116,-6.0141,-6.0132,-6.0195,-6.0184,-6.0257,-6.0165,-6.0183,-6.0256,-6.0248,-6.0372,-6.023,-6.032,-6.0324,-6.0313,-6.062,-6.0675,-6.0894,-6.0517,-6.0522,-6.0526,0,-6.0025,-6.0072,-6.0254,-6.0265,-6.0296,-6.0377,-6.0428,-6.0491,-6.0517,-6.0505,-6.054,-6.0488,-6.0589,-6.0474,-6.0611,-6.0516,-6.0551,-6.0552,-6.056,-6.0564,-6.0435,-6.063,-6.0963,-6.0995,-6.0572,-6.0568,-6.0565,0,-6.0248,-6.0357,-6.0479,-6.05,-6.0517,-6.0575,-6.0585,-6.0605,-6.0644,-6.069,-6.0714,-6.0771,-6.0802,-6.0847,-6.0812,-6.0731,-6.0955,-6.0837,-6.0946,-6.0947,-6.0994,-6.0991,-6.1335,-6.1022,-6.1021,-6.1021,-6.102,0,-6.0511,-6.0625,-6.0579,-6.0655,-6.0779,-6.073,-6.0855,-6.0855,-6.0874,-6.0946,-6.0876,-6.0946,-6.0896,-6.0962,-6.0935,-6.1052,-6.1067,-6.1059,-6.105,-6.1064,-6.1065,-6.1084,-6.1066,-6.1029,-6.1027,-6.1026,-6.1024,0,-6.078,-6.0754,-6.0881,-6.0887,-6.0892,-6.0983,-6.0988,-6.1057,-6.1043,-6.1137,-6.1156,-6.1134,-6.1207,-6.1177,-6.1256,-6.1237,-6.1386,-6.1359,-6.1377,-6.1369,-6.1479,-6.1468,-6.1844,-6.189,-6.1551,-6.1554,-6.1557,0,-6.0948,-6.1034,-6.1049,-6.1093,-6.1108,-6.118,-6.1219,-6.1174,-6.1218,-6.1254,-6.1319,-6.1387,-6.1438,-6.156,-6.1551,-6.161,-6.1581,-6.1709,-6.159,-6.16,-6.158,-6.1574,-6.1582,-6.1732,-6.1736,-6.174,-6.1742,0,-6.125,-6.1232,-6.1292,-6.1347,-6.1396,-6.1437,-6.1472,-6.1512,-6.1469,-6.1522,-6.1596,-6.1636,-6.1716,-6.1783,-6.1836,-6.1845,-6.1787,-6.1781,-6.1808,-6.1822,-6.1828,-6.1823,-6.144,-6.1771,-6.1768,-6.1766,-6.1765,-6.1763,-6.1471,-6.1542,-6.1564,-6.1632,-6.1654,-6.1689,-6.1754,-6.1748,-6.1809,-6.187,-6.1841,-6.1927,-6.195,-6.2015,-6.2032,-6.2099,-6.2048,-6.209,-6.2099,-6.2109,-6.2123,-6.182,-6.2109,-6.2108,-6.2107,-6.2106,-6.2105,0,-6.1766,-6.1776,-6.1839,-6.189,-6.1944,-6.1885,-6.1921,-6.1969,-6.2046,-6.2073,-6.2125,-6.221,-6.2276,-6.2272,-6.2332,-6.2386,-6.236,-6.2403,-6.2397,-6.24,-6.2165,-6.2134,-6.2422,-6.2422,-6.2422,-6.2422,-6.2422,-6.2422,-6.1925,-6.2042,-6.2028,-6.2155,-6.2164,-6.2247,-6.2273,-6.2304,-6.2325,-6.2423,-6.2477,-6.2474,-6.2489,-6.2549,-6.2606,-6.2604,-6.2628,-6.268,-6.2667,-6.2448,-6.2416,-6.2386,-6.2356,-6.2687,-6.2687,-6.2895,-6.2897,-6.2899]},{"header":{"parameterUnit":"m.s-1","parameterCategory":1,"la1":30.2991,"la2":30.254,"lo1":-89.0895,"lo2":-89.0444,"dy":0.0017,"dx":0.0017,"nx":28,"ny":28,"refTime":"2024-12-23T09:00:00:Z","depth":0,"parameterNumber":3,"parameterNumberName":"V-component_of_WINDS"},"data":[0,0,0,0,0,0,0,0,0,0,0,0,0,0,0,0,0,0,0,0,0,0,0,0,0,0,0,0,0,0,0,0,0,0,0,0,0,0,0,0,0,0,0,0,0,0,0,0,0,0,0,0,0,0,0,0,0,0,-0.3497,-0.3497,0,-0.3475,-0.3475,-0.3475,-0.3441,-0.344,-0.344,-0.3439,-0.3419,-0.3419,-0.3419,0,0,0,0,0,0,0,0,0,0,0,0,0,-0.351,-0.351,-0.3497,-0.3497,-0.3497,-0.3475,-0.3475,-0.3475,-0.3441,-0.344,-0.3439,-0.3439,-0.3419,-0.3419,-0.3419,0,0,0,0,0,0,0,0,0,0,0,0,0,-0.3498,-0.351,-0.3497,-0.3477,-0.3475,-0.3475,-0.3475,-0.3475,-0.3441,-0.344,-0.3439,-0.3438,-0.3419,-0.3419,-0.3419,-0.3438,0,0,-0.3419,-0.3419,0,0,0,0,0,0,0,0,-0.3499,-0.3497,-0.348,-0.3479,-0.3476,-0.346,-0.3472,-0.3463,-0.3441,-0.3454,-0.3439,-0.3438,-0.3434,-0.3432,-0.343,-0.3437,-0.3437,-0.3419,-0.342,-0.342,-0.342,0,0,0,0,0,0,0,-0.3499,-0.3498,-0.3489,-0.348,-0.3478,-0.3469,-0.3466,-0.347,-0.3449,-0.3453,-0.345,-0.3448,-0.3432,-0.343,-0.343,-0.3436,-0.3419,-0.342,-0.342,-0.342,-0.3455,-0.3456,0,0,0,0,0,0,-0.3503,-0.3499,-0.3489,-0.3488,-0.3485,-0.347,-0.3467,-0.3466,-0.3449,-0.3446,-0.3449,-0.3447,-0.3431,-0.343,-0.3429,-0.3448,-0.342,-0.342,-0.342,-0.3454,-0.3455,-0.3456,0,0,0,0,0,0,-0.3504,-0.3503,-0.349,-0.3493,-0.3491,-0.347,-0.347,-0.3466,-0.3464,-0.3446,-0.3442,-0.3451,-0.343,-0.3429,-0.3435,-0.3447,-0.342,-0.342,-0.3453,-0.3454,-0.3456,-0.3489,0,0,0,0,0,0,-0.3504,-0.3503,-0.351,-0.3493,-0.3491,-0.3497,-0.3471,-0.3466,-0.3464,-0.3461,-0.3447,-0.3444,-0.3429,-0.3435,-0.3435,-0.3447,-0.342,-0.3452,-0.3454,-0.3455,-0.3487,-0.3491,-0.3495,0,0,0,0,0,-0.3505,-0.3522,-0.3511,-0.351,-0.3499,-0.3498,-0.3497,-0.3479,-0.3465,-0.3472,-0.346,-0.3444,-0.3446,-0.3436,-0.3436,-0.3448,-0.3451,-0.3453,-0.3455,-0.3485,-0.349,-0.3495,0,0,0,0,0,0,-0.3542,-0.3519,-0.3507,-0.3519,-0.351,-0.3492,-0.3501,-0.3485,-0.3482,-0.3479,-0.3457,-0.3454,-0.3463,-0.3456,-0.3446,-0.3464,-0.3446,-0.3448,-0.3469,-0.3474,-0.3478,-0.348,-0.342,0,0,0,0,0,-0.3552,-0.3552,-0.3532,-0.3545,-0.3541,-0.3521,-0.352,-0.3507,-0.3498,-0.3494,-0.3483,-0.3475,-0.3473,-0.3473,-0.3471,-0.3485,-0.3481,-0.3493,-0.3497,-0.3501,-0.3503,-0.3508,-0.3512,-0.3463,-0.3463,-0.3463,0,0,-0.3572,-0.3559,-0.3562,-0.3552,-0.3544,-0.3545,-0.3519,-0.3522,-0.3522,-0.3495,-0.35,-0.3491,-0.3481,-0.3491,-0.3494,-0.3485,-0.3515,-0.3503,-0.3506,-0.3506,-0.351,-0.3515,-0.3519,-0.3464,-0.3464,-0.3463,0,0,-0.3609,-0.36,-0.3608,-0.36,-0.3587,-0.3573,-0.3575,-0.3559,-0.3551,-0.3555,-0.3534,-0.3534,-0.3533,-0.3526,-0.3522,-0.3552,-0.3537,-0.3552,-0.3575,-0.358,-0.3584,-0.3587,-0.3597,-0.3601,-0.3554,-0.3554,-0.3554,0,-0.3636,-0.3636,-0.3615,-0.3618,-0.3614,-0.3587,-0.3595,-0.3588,-0.3576,-0.3574,-0.3563,-0.3558,-0.3549,-0.3556,-0.3563,-0.3561,-0.3562,-0.3554,-0.3585,-0.3588,-0.3591,-0.36,-0.3604,-0.3556,-0.3556,-0.3556,-0.3556,0,-0.3669,-0.367,-0.3678,-0.3665,-0.3661,-0.3667,-0.3646,-0.3645,-0.3631,-0.3618,-0.3622,-0.361,-0.3604,-0.3604,-0.3591,-0.3608,-0.3603,-0.3589,-0.357,-0.3598,-0.3606,-0.3609,-0.3559,-0.3558,-0.3558,-0.3557,0,0,-0.3733,-0.3704,-0.3708,-0.37,-0.3683,-0.3683,-0.3686,-0.3679,-0.3678,-0.3669,-0.3671,-0.3669,-0.3654,-0.365,-0.3636,-0.364,-0.3663,-0.3625,-0.3625,-0.3632,-0.368,-0.3691,-0.3695,-0.3653,-0.3653,-0.3654,-0.3681,0,-0.3766,-0.377,-0.3749,-0.3759,-0.3758,-0.3731,-0.3733,-0.3723,-0.371,-0.3708,-0.3694,-0.3692,-0.3674,-0.3671,-0.3674,-0.366,-0.3673,-0.3658,-0.3654,-0.3655,-0.3658,-0.37,-0.3712,-0.3738,-0.3684,-0.3684,-0.3685,0,-0.3806,-0.3798,-0.3807,-0.3786,-0.3785,-0.3788,-0.3778,-0.3775,-0.3762,-0.3752,-0.3746,-0.3728,-0.373,-0.3711,-0.3712,-0.3702,-0.3699,-0.3692,-0.3692,-0.3692,-0.3672,-0.37,-0.3746,-0.375,-0.369,-0.3689,-0.3689,0,-0.385,-0.3841,-0.3844,-0.3839,-0.3815,-0.3818,-0.3808,-0.3793,-0.3789,-0.378,-0.3777,-0.3769,-0.3765,-0.3759,-0.3739,-0.3728,-0.3742,-0.3723,-0.3734,-0.3735,-0.374,-0.374,-0.3786,-0.3738,-0.3738,-0.3737,-0.3737,0,-0.389,-0.3896,-0.3863,-0.3866,-0.3872,-0.3847,-0.3853,-0.3841,-0.3828,-0.3827,-0.3803,-0.3803,-0.3777,-0.3773,-0.3758,-0.376,-0.3759,-0.3751,-0.3747,-0.3753,-0.3754,-0.3752,-0.3749,-0.3738,-0.3738,-0.3738,-0.3738,0,-0.3941,-0.3919,-0.3921,-0.3897,-0.3891,-0.3896,-0.3876,-0.3877,-0.3861,-0.386,-0.3858,-0.3835,-0.3829,-0.3808,-0.3799,-0.3788,-0.3795,-0.3788,-0.38,-0.3797,-0.381,-0.3809,-0.3856,-0.386,-0.381,-0.381,-0.3811,0,-0.3968,-0.3972,-0.3947,-0.3944,-0.3935,-0.3931,-0.3925,-0.39,-0.3896,-0.3879,-0.3882,-0.3874,-0.3866,-0.3858,-0.3841,-0.3832,-0.3824,-0.3841,-0.3823,-0.3828,-0.3823,-0.3824,-0.3823,-0.3845,-0.3846,-0.3846,-0.3847,0,-0.4018,-0.4006,-0.3999,-0.3988,-0.3982,-0.3972,-0.3961,-0.396,-0.3931,-0.3928,-0.392,-0.3914,-0.3902,-0.3895,-0.3883,-0.3873,-0.3855,-0.3852,-0.3854,-0.3861,-0.3868,-0.3864,-0.381,-0.3852,-0.3851,-0.3851,-0.3851,-0.385,-0.4057,-0.4059,-0.4041,-0.4033,-0.4021,-0.4011,-0.4009,-0.3993,-0.3986,-0.3974,-0.3959,-0.3954,-0.3938,-0.3919,-0.391,-0.3905,-0.3896,-0.3899,-0.39,-0.3901,-0.3904,-0.3868,-0.3903,-0.3903,-0.3903,-0.3903,-0.3903,0,-0.4106,-0.4092,-0.4085,-0.4069,-0.4062,-0.4044,-0.403,-0.4026,-0.4021,-0.4007,-0.3999,-0.399,-0.3981,-0.3961,-0.3951,-0.3951,-0.3942,-0.3949,-0.3949,-0.3946,-0.3914,-0.3912,-0.3956,-0.3956,-0.3956,-0.3956,-0.3956,-0.3956,-0.413,-0.4131,-0.4116,-0.411,-0.4096,-0.409,-0.4083,-0.4072,-0.4061,-0.4051,-0.4043,-0.403,-0.4013,-0.4,-0.3991,-0.3986,-0.3983,-0.3992,-0.3984,-0.3954,-0.3949,-0.3944,-0.3943,-0.3992,-0.3992,-0.4017,-0.4017,-0.4017]}]]